Time,TemperatureF,DewpointF,PressureIn,WindDirection,WindDirectionDegrees,WindSpeedMPH,WindSpeedGustMPH,Humidity,HourlyPrecipIn,Conditions,Clouds,dailyrainin,SolarRadiationWatts/m^2,SoftwareType,DateUTC
2013-01-17 00:12:00,32.0,12.0,-100.00,NW,307,8.0,23.0,42,0.00,,,0.00,0.000000,,2013-01-17 07:12:00,
2013-01-17 00:22:00,32.0,12.0,-100.00,NW,307,8.0,23.0,42,0.00,,,0.00,0.000000,,2013-01-17 07:22:00,
2013-01-17 00:32:00,32.0,12.0,-100.00,NW,307,8.0,23.0,42,0.00,,,0.00,0.000000,,2013-01-17 07:32:00,
2013-01-17 00:42:00,32.0,12.0,-100.00,NW,307,8.0,23.0,42,0.00,,,0.00,0.000000,,2013-01-17 07:42:00,
2013-01-17 00:52:00,32.0,12.0,-100.00,NW,307,8.0,23.0,42,0.00,,,0.00,0.000000,,2013-01-17 07:52:00,
2013-01-17 01:12:00,32.0,12.0,-100.00,NW,314,5.0,13.0,42,0.00,,,0.00,0.000000,,2013-01-17 08:12:00,
2013-01-17 01:22:00,32.0,12.0,-100.00,NW,314,5.0,13.0,42,0.00,,,0.00,0.000000,,2013-01-17 08:22:00,
2013-01-17 01:32:00,32.0,12.0,-100.00,NW,314,5.0,13.0,42,0.00,,,0.00,0.000000,,2013-01-17 08:32:00,
2013-01-17 01:43:00,32.0,12.0,-100.00,NW,314,5.0,13.0,42,0.00,,,0.00,0.000000,,2013-01-17 08:43:00,
2013-01-17 01:52:00,32.0,12.0,-100.00,NW,314,5.0,13.0,42,0.00,,,0.00,0.000000,,2013-01-17 08:52:00,
2013-01-17 02:12:00,31.0,11.0,-100.00,ENE,59,3.0,13.0,42,0.00,,,0.00,0.000000,,2013-01-17 09:12:00,
2013-01-17 02:22:00,31.0,11.0,-100.00,ENE,59,3.0,13.0,42,0.00,,,0.00,0.000000,,2013-01-17 09:22:00,
2013-01-17 02:32:00,31.0,11.0,-100.00,ENE,59,3.0,13.0,42,0.00,,,0.00,0.000000,,2013-01-17 09:32:00,
2013-01-17 02:42:00,31.0,11.0,-100.00,ENE,59,3.0,13.0,42,0.00,,,0.00,0.000000,,2013-01-17 09:42:00,
2013-01-17 02:52:00,31.0,11.0,-100.00,ENE,59,3.0,13.0,42,0.00,,,0.00,0.000000,,2013-01-17 09:52:00,
2013-01-17 03:12:00,32.0,11.0,-100.00,West,262,1.0,8.0,41,0.00,,,0.00,0.000000,,2013-01-17 10:12:00,
2013-01-17 03:22:00,32.0,11.0,-100.00,West,262,1.0,8.0,41,0.00,,,0.00,0.000000,,2013-01-17 10:22:00,
2013-01-17 03:32:00,32.0,11.0,-100.00,West,262,1.0,8.0,41,0.00,,,0.00,0.000000,,2013-01-17 10:32:00,
2013-01-17 03:42:00,32.0,11.0,-100.00,West,262,1.0,8.0,41,0.00,,,0.00,0.000000,,2013-01-17 10:42:00,
2013-01-17 03:52:00,32.0,11.0,-100.00,West,262,1.0,8.0,41,0.00,,,0.00,0.000000,,2013-01-17 10:52:00,
2013-01-17 04:12:00,30.0,7.0,-100.00,South,190,2.0,7.0,37,0.00,,,0.00,0.000000,,2013-01-17 11:12:00,
2013-01-17 04:22:00,30.0,7.0,-100.00,South,190,2.0,7.0,37,0.00,,,0.00,0.000000,,2013-01-17 11:22:00,
2013-01-17 04:32:00,30.0,7.0,-100.00,South,190,2.0,7.0,37,0.00,,,0.00,0.000000,,2013-01-17 11:32:00,
2013-01-17 04:42:00,30.0,7.0,-100.00,South,190,2.0,7.0,37,0.00,,,0.00,0.000000,,2013-01-17 11:42:00,
2013-01-17 04:52:00,30.0,7.0,-100.00,South,190,2.0,7.0,37,0.00,,,0.00,0.000000,,2013-01-17 11:52:00,
2013-01-17 05:12:00,31.0,5.0,-100.00,SW,216,7.0,12.0,33,0.00,,,0.00,0.000000,,2013-01-17 12:12:00,
2013-01-17 05:22:00,31.0,5.0,-100.00,SW,216,7.0,12.0,33,0.00,,,0.00,0.000000,,2013-01-17 12:22:00,
2013-01-17 05:32:00,31.0,5.0,-100.00,SW,216,7.0,12.0,33,0.00,,,0.00,0.000000,,2013-01-17 12:32:00,
2013-01-17 05:42:00,31.0,5.0,-100.00,SW,216,7.0,12.0,33,0.00,,,0.00,0.000000,,2013-01-17 12:42:00,
2013-01-17 05:52:00,31.0,5.0,-100.00,SW,216,7.0,12.0,33,0.00,,,0.00,0.000000,,2013-01-17 12:52:00,
2013-01-17 06:12:00,31.0,3.0,-100.00,SW,224,7.0,13.0,30,0.00,,,0.00,0.000000,,2013-01-17 13:12:00,
2013-01-17 06:22:00,31.0,3.0,-100.00,SW,224,7.0,13.0,30,0.00,,,0.00,0.000000,,2013-01-17 13:22:00,
2013-01-17 06:33:00,31.0,3.0,-100.00,SW,224,7.0,13.0,30,0.00,,,0.00,0.000000,,2013-01-17 13:33:00,
2013-01-17 07:12:00,31.0,5.0,-100.00,WSW,251,5.0,11.0,32,-99.99,,,0.00,0.000000,,2013-01-17 14:12:00,
2013-01-17 07:23:00,31.0,5.0,-100.00,WSW,251,5.0,11.0,32,-99.99,,,0.00,0.000000,,2013-01-17 14:23:00,
2013-01-17 07:32:00,31.0,5.0,-100.00,WSW,251,5.0,11.0,32,-99.99,,,0.00,0.000000,,2013-01-17 14:32:00,
2013-01-17 08:22:00,32.0,3.0,-100.00,WNW,290,4.0,9.0,28,-99.99,,,0.00,0.000000,,2013-01-17 15:22:00,
2013-01-17 09:12:00,34.0,3.0,-100.00,WNW,292,5.0,8.0,26,-99.99,,,0.00,35.000000,,2013-01-17 16:12:00,
2013-01-17 09:22:00,34.0,3.0,-100.00,WNW,292,5.0,8.0,26,-99.99,,,0.00,35.000000,,2013-01-17 16:22:00,
2013-01-17 10:12:00,37.0,4.0,-100.00,SW,230,3.0,10.0,25,-99.99,,,0.00,180.000000,,2013-01-17 17:12:00,
2013-01-17 11:12:00,41.0,7.0,-100.00,South,181,2.0,10.0,24,-99.99,,,0.00,369.000000,,2013-01-17 18:12:00,
2013-01-17 11:22:00,41.0,7.0,-100.00,South,181,2.0,10.0,24,-99.99,,,0.00,369.000000,,2013-01-17 18:22:00,
2013-01-17 12:12:00,45.0,9.0,-100.00,ESE,118,2.0,8.0,23,-99.99,,,0.00,502.000000,,2013-01-17 19:12:00,
2013-01-17 12:22:00,45.0,9.0,-100.00,ESE,118,2.0,8.0,23,-99.99,,,0.00,502.000000,,2013-01-17 19:22:00,
2013-01-17 13:22:00,38.0,9.0,-100.00,ESE,107,2.0,8.0,30,-99.99,,,0.00,495.000000,,2013-01-17 20:22:00,
2013-01-17 13:33:00,38.0,9.0,-100.00,ESE,107,2.0,8.0,30,-99.99,,,0.00,495.000000,,2013-01-17 20:33:00,
2013-01-17 13:43:00,38.0,9.0,-100.00,ESE,107,2.0,8.0,30,-99.99,,,0.00,495.000000,,2013-01-17 20:43:00,
2013-01-17 13:53:00,38.0,9.0,-100.00,ESE,107,2.0,8.0,30,-99.99,,,0.00,495.000000,,2013-01-17 20:53:00,
2013-01-17 14:23:00,41.0,10.0,-100.00,ESE,110,4.0,8.0,27,0.00,,,0.00,514.000000,,2013-01-17 21:23:00,
2013-01-17 14:33:00,41.0,10.0,-100.00,ESE,110,4.0,8.0,27,0.00,,,0.00,514.000000,,2013-01-17 21:33:00,
2013-01-17 14:42:00,41.0,10.0,-100.00,ESE,110,4.0,8.0,27,0.00,,,0.00,514.000000,,2013-01-17 21:42:00,
2013-01-17 14:52:00,41.0,10.0,-100.00,ESE,110,4.0,8.0,27,0.00,,,0.00,514.000000,,2013-01-17 21:52:00,
2013-01-17 15:12:00,39.0,9.0,-100.00,NE,38,2.0,11.0,28,0.00,,,0.00,459.000000,,2013-01-17 22:12:00,
2013-01-17 15:22:00,39.0,9.0,-100.00,NE,38,2.0,11.0,28,0.00,,,0.00,459.000000,,2013-01-17 22:22:00,
2013-01-17 15:33:00,39.0,9.0,-100.00,NE,38,2.0,11.0,28,0.00,,,0.00,459.000000,,2013-01-17 22:33:00,
2013-01-17 15:42:00,39.0,9.0,-100.00,NE,38,2.0,11.0,28,0.00,,,0.00,459.000000,,2013-01-17 22:42:00,
2013-01-17 15:52:00,39.0,9.0,-100.00,NE,38,2.0,11.0,28,0.00,,,0.00,459.000000,,2013-01-17 22:52:00,
2013-01-17 16:12:00,40.0,8.0,-100.00,East,94,2.0,8.0,26,0.00,,,0.00,313.000000,,2013-01-17 23:12:00,
2013-01-17 16:22:00,40.0,8.0,-100.00,East,94,2.0,8.0,26,0.00,,,0.00,313.000000,,2013-01-17 23:22:00,
2013-01-17 16:32:00,40.0,8.0,-100.00,East,94,2.0,8.0,26,0.00,,,0.00,313.000000,,2013-01-17 23:32:00,
2013-01-17 16:42:00,40.0,8.0,-100.00,East,94,2.0,8.0,26,0.00,,,0.00,313.000000,,2013-01-17 23:42:00,
2013-01-17 16:52:00,40.0,8.0,-100.00,East,94,2.0,8.0,26,0.00,,,0.00,313.000000,,2013-01-17 23:52:00,
2013-01-17 17:23:00,36.0,8.0,-100.00,NE,54,3.0,8.0,31,0.00,,,0.00,133.000000,,2013-01-18 00:23:00,
2013-01-17 17:32:00,36.0,8.0,-100.00,NE,54,3.0,8.0,31,0.00,,,0.00,133.000000,,2013-01-18 00:32:00,
2013-01-17 17:42:00,36.0,8.0,-100.00,NE,54,3.0,8.0,31,0.00,,,0.00,133.000000,,2013-01-18 00:42:00,
2013-01-17 17:52:00,36.0,8.0,-100.00,NE,54,3.0,8.0,31,0.00,,,0.00,133.000000,,2013-01-18 00:52:00,
2013-01-17 18:12:00,34.0,9.0,-100.00,WSW,243,5.0,8.0,35,0.00,,,-99.99,6.000000,,2013-01-18 01:12:00,
2013-01-17 18:22:00,34.0,9.0,-100.00,WSW,243,5.0,8.0,35,0.00,,,-99.99,6.000000,,2013-01-18 01:22:00,
2013-01-17 18:33:00,34.0,9.0,-100.00,WSW,243,5.0,8.0,35,0.00,,,-99.99,6.000000,,2013-01-18 01:33:00,
2013-01-17 18:42:00,34.0,9.0,-100.00,WSW,243,5.0,8.0,35,0.00,,,-99.99,6.000000,,2013-01-18 01:42:00,
2013-01-17 18:52:00,34.0,9.0,-100.00,WSW,243,5.0,8.0,35,0.00,,,-99.99,6.000000,,2013-01-18 01:52:00,
2013-01-17 19:12:00,35.0,11.0,-100.00,West,262,7.0,13.0,36,0.00,,,0.00,0.000000,,2013-01-18 02:12:00,
2013-01-17 19:22:00,35.0,11.0,-100.00,West,262,7.0,13.0,36,0.00,,,0.00,0.000000,,2013-01-18 02:22:00,
2013-01-17 19:32:00,35.0,11.0,-100.00,West,262,7.0,13.0,36,0.00,,,0.00,0.000000,,2013-01-18 02:32:00,
2013-01-17 19:42:00,35.0,11.0,-100.00,West,262,7.0,13.0,36,0.00,,,0.00,0.000000,,2013-01-18 02:42:00,
2013-01-17 19:52:00,35.0,11.0,-100.00,West,262,7.0,13.0,36,0.00,,,0.00,0.000000,,2013-01-18 02:52:00,
2013-01-17 20:22:00,35.0,9.0,-100.00,WSW,244,12.0,15.0,34,0.00,,,0.00,0.000000,,2013-01-18 03:22:00,
2013-01-17 20:33:00,35.0,9.0,-100.00,WSW,244,12.0,15.0,34,0.00,,,0.00,0.000000,,2013-01-18 03:33:00,
2013-01-17 20:42:00,35.0,9.0,-100.00,WSW,244,12.0,15.0,34,0.00,,,0.00,0.000000,,2013-01-18 03:42:00,
2013-01-17 20:52:00,35.0,9.0,-100.00,WSW,244,12.0,15.0,34,0.00,,,0.00,0.000000,,2013-01-18 03:52:00,
2013-01-17 21:12:00,36.0,9.0,-100.00,North,8,3.0,20.0,32,0.00,,,0.00,0.000000,,2013-01-18 04:12:00,
2013-01-17 21:22:00,36.0,9.0,-100.00,North,8,3.0,20.0,32,0.00,,,0.00,0.000000,,2013-01-18 04:22:00,
2013-01-17 21:32:00,36.0,9.0,-100.00,North,8,3.0,20.0,32,0.00,,,0.00,0.000000,,2013-01-18 04:32:00,
2013-01-17 21:42:00,36.0,9.0,-100.00,North,8,3.0,20.0,32,0.00,,,0.00,0.000000,,2013-01-18 04:42:00,
2013-01-17 21:52:00,36.0,9.0,-100.00,North,8,3.0,20.0,32,0.00,,,0.00,0.000000,,2013-01-18 04:52:00,
2013-01-17 22:12:00,35.0,9.0,-100.00,West,269,9.0,10.0,33,0.00,,,-99.99,0.000000,,2013-01-18 05:12:00,
2013-01-17 22:22:00,35.0,9.0,-100.00,West,269,9.0,10.0,33,0.00,,,-99.99,0.000000,,2013-01-18 05:22:00,
2013-01-17 22:33:00,35.0,9.0,-100.00,West,269,9.0,10.0,33,0.00,,,-99.99,0.000000,,2013-01-18 05:33:00,
2013-01-17 22:42:00,35.0,9.0,-100.00,West,269,9.0,10.0,33,0.00,,,-99.99,0.000000,,2013-01-18 05:42:00,
2013-01-17 22:52:00,35.0,9.0,-100.00,West,269,9.0,10.0,33,0.00,,,-99.99,0.000000,,2013-01-18 05:52:00,
2013-01-17 23:12:00,33.0,8.0,-100.00,West,263,8.0,18.0,34,0.00,,,0.00,0.000000,,2013-01-18 06:12:00,
2013-01-17 23:22:00,33.0,8.0,-100.00,West,263,8.0,18.0,34,0.00,,,0.00,0.000000,,2013-01-18 06:22:00,
2013-01-17 23:32:00,33.0,8.0,-100.00,West,263,8.0,18.0,34,0.00,,,0.00,0.000000,,2013-01-18 06:32:00,
2013-01-17 23:42:00,33.0,8.0,-100.00,West,263,8.0,18.0,34,0.00,,,0.00,0.000000,,2013-01-18 06:42:00,
2013-01-17 23:52:00,33.0,8.0,-100.00,West,263,8.0,18.0,34,0.00,,,0.00,0.000000,,2013-01-18 06:52:00,